Regional Weather Roundup
Issued by NWS Nashville, TN

Home | Current Version | Previous Version | Text Only | Print | Product List | Glossary On
Versions: 1 2 3 4 5 6 7 8 9 10 11 12 13 14 15 16 17 18 19 20 21 22 23 24 25 26 27 28 29 30 31 32 33 34 35 36 37 38 39 40 41 42 43 44 45 46 47 48 49 50
000
ASUS44 KOHX 232105
RWROHX
MIDDLE TENNESSEE HOURLY WEATHER ROUNDUP
NATIONAL WEATHER SERVICE NASHVILLE TN
400 PM CDT WED JUL 23 2014

NOTE: "FAIR" INDICATES FEW OR NO CLOUDS BELOW 12,000 FEET WITH
NO SIGNIFICANT WEATHER AND/OR OBSTRUCTIONS TO VISIBILITY.

* THESE REPORTS ARE NOT UNDER NWS QUALITY CONTROL AND MAY NOT
  REPORT WEATHER SUCH AS PRECIPITATION AND FOG.


TNZ005>011-023>034-057-059-062>066-078-080-232200
...NORTHERN MIDDLE TENNESSEE...

CITY           SKY/WX    TMP DP  RH WIND       PRES   REMARKS
CLARKSVILLE    PTSUNNY   90  71  53 W8        29.95F HX  96
CROSSVILLE     PTSUNNY   73  68  84 SW5       30.08F
NASHVILLE      PTSUNNY   89  75  63 VRB7      29.95F HX  99
SMYRNA         PTSUNNY   92  76  59 S13G18    29.95F THUNDER HX 104
SPARTA         MOSUNNY   88  75  66 S10       30.00F HX  97
$$
TNZ056-058-060-061-075>077-079-093>097-232200
...SOUTHERN MIDDLE TENNESSEE...

CITY           SKY/WX    TMP DP  RH WIND       PRES   REMARKS
COLUMBIA       SUNNY     90  75  62 S7        29.97F HX 100
FAYETTEVILLE   SUNNY     81  72  74 S7        30.03F
MCMINNVILLE    SUNNY     84  73  70 S3        30.02F HX  91
SHELBYVILLE    MOSUNNY   88  75  66 SW8       30.00F HX  97
TULLAHOMA      PTSUNNY   84  72  65 SW3       30.03F
WINCHESTER     MOSUNNY   86  72  62 SW3       30.02F HX  92
$$


...KEY TO REMARKS...
VSB - VISIBILITY IN MILES
WCI - WIND CHILL INDEX
HX  - HEAT INDEX



USA.gov is the U.S. government's official web portal to all federal, state and local government web resources and services.